contact:dominique.lefevre@mio.osupytheas.fr, maurice.libes@osupytheas.fr, didier.mallarino@osupytheas.fr
Project:EMSO http://www.emso-fr.org/EMSO-France
Depth: 2436.0 m
Title:EMSO Ligure Ouest : Data MII capteur MICROCAT
DateTime_Computer,Latitude,Longitude,Temperature,Conductivity,Pressure,DateTime_Instrument
DateTime_Computer,Latitude,Longitude,degC,S m-1,dbar,DateTime_Instrument
2019-06-04T00:00:06Z,42.805,6.029,13.2965,4.59999,2469.773,2019-6-04T02:00:21Z
2019-06-04T00:03:09Z,42.805,6.029,13.2973,4.59994,2469.76,2019-6-04T02:03:24Z
2019-06-04T00:06:12Z,42.805,6.029,13.2971,4.59991,2469.773,2019-6-04T02:06:27Z
2019-06-04T00:09:15Z,42.805,6.029,13.2958,4.59987,2469.773,2019-6-04T02:09:30Z
2019-06-04T00:12:18Z,42.805,6.029,13.2960,4.59974,2469.783,2019-6-04T02:12:33Z
2019-06-04T00:15:21Z,42.805,6.029,13.2968,4.59990,2469.76,2019-6-04T02:15:36Z
2019-06-04T00:18:24Z,42.805,6.029,13.2996,4.60011,2469.737,2019-6-04T02:18:39Z
2019-06-04T00:21:27Z,42.805,6.029,13.2968,4.60024,2469.76,2019-6-04T02:21:42Z
2019-06-04T00:24:30Z,42.805,6.029,13.2961,4.59981,2469.727,2019-6-04T02:24:45Z
2019-06-04T00:27:33Z,42.805,6.029,13.2964,4.59999,2469.737,2019-6-04T02:27:48Z
2019-06-04T00:30:36Z,42.805,6.029,13.3000,4.59995,2469.737,2019-6-04T02:30:51Z
2019-06-04T00:33:39Z,42.805,6.029,13.2978,4.60026,2469.737,2019-6-04T02:33:54Z
2019-06-04T00:36:41Z,42.805,6.029,13.2978,4.60016,2469.737,2019-6-04T02:36:57Z
2019-06-04T00:39:44Z,42.805,6.029,13.2995,4.60001,2469.773,2019-6-04T02:40:00Z
2019-06-04T00:42:47Z,42.805,6.029,13.2979,4.60009,2469.713,2019-6-04T02:43:03Z
2019-06-04T00:45:50Z,42.805,6.029,13.2982,4.60014,2469.737,2019-6-04T02:46:06Z
2019-06-04T00:48:53Z,42.805,6.029,13.2991,4.60010,2469.713,2019-6-04T02:49:08Z
2019-06-04T00:51:56Z,42.805,6.029,13.2968,4.60014,2469.727,2019-6-04T02:52:11Z
2019-06-04T00:54:59Z,42.805,6.029,13.2989,4.60011,2469.737,2019-6-04T02:55:14Z
2019-06-04T00:58:02Z,42.805,6.029,13.3005,4.60026,2469.713,2019-6-04T02:58:17Z
2019-06-04T01:01:05Z,42.805,6.029,13.2983,4.60029,2469.713,2019-6-04T03:01:20Z
2019-06-04T01:04:08Z,42.805,6.029,13.2991,4.60021,2469.713,2019-6-04T03:04:23Z
2019-06-04T01:07:11Z,42.805,6.029,13.2991,4.59999,2469.727,2019-6-04T03:07:26Z
2019-06-04T01:10:14Z,42.805,6.029,13.2984,4.60021,2469.704,2019-6-04T03:10:29Z
2019-06-04T01:13:17Z,42.805,6.029,13.2993,4.60020,2469.69,2019-6-04T03:13:32Z
2019-06-04T01:16:20Z,42.805,6.029,13.2979,4.60016,2469.704,2019-6-04T03:16:35Z
2019-06-04T01:19:23Z,42.805,6.029,13.2969,4.60005,2469.727,2019-6-04T03:19:38Z
2019-06-04T01:22:26Z,42.805,6.029,13.2987,4.60056,2469.704,2019-6-04T03:22:41Z
2019-06-04T01:25:29Z,42.805,6.029,13.2995,4.60062,2469.68,2019-6-04T03:25:44Z
2019-06-04T01:28:31Z,42.805,6.029,13.3014,4.60011,2469.713,2019-6-04T03:28:47Z
2019-06-04T01:31:34Z,42.805,6.029,13.2999,4.60015,2469.727,2019-6-04T03:31:50Z
2019-06-04T01:34:37Z,42.805,6.029,13.2991,4.59999,2469.727,2019-6-04T03:34:53Z
2019-06-04T01:37:40Z,42.805,6.029,13.2985,4.59980,2469.69,2019-6-04T03:37:56Z
2019-06-04T01:40:43Z,42.805,6.029,13.2986,4.59975,2469.69,2019-6-04T03:40:59Z
2019-06-04T01:43:46Z,42.805,6.029,13.2973,4.59980,2469.713,2019-6-04T03:44:01Z
2019-06-04T01:46:49Z,42.805,6.029,13.2976,4.60008,2469.704,2019-6-04T03:47:04Z
2019-06-04T01:49:52Z,42.805,6.029,13.2991,4.59983,2469.69,2019-6-04T03:50:07Z
2019-06-04T01:52:55Z,42.805,6.029,13.2963,4.60001,2469.727,2019-6-04T03:53:10Z
2019-06-04T01:55:58Z,42.805,6.029,13.2982,4.60001,2469.704,2019-6-04T03:56:13Z
2019-06-04T01:59:01Z,42.805,6.029,13.2982,4.60001,2469.704,2019-6-04T03:59:16Z
2019-06-04T02:02:04Z,42.805,6.029,13.2987,4.59994,2469.69,2019-6-04T04:02:19Z
2019-06-04T02:05:07Z,42.805,6.029,13.2991,4.59996,2469.704,2019-6-04T04:05:22Z
2019-06-04T02:08:10Z,42.805,6.029,13.2994,4.59966,2469.704,2019-6-04T04:08:25Z
2019-06-04T02:11:13Z,42.805,6.029,13.2996,4.59990,2469.68,2019-6-04T04:11:28Z
2019-06-04T02:14:16Z,42.805,6.029,13.2986,4.60002,2469.704,2019-6-04T04:14:31Z
2019-06-04T02:17:19Z,42.805,6.029,13.3002,4.59975,2469.704,2019-6-04T04:17:34Z
2019-06-04T02:20:22Z,42.805,6.029,13.2976,4.59981,2469.667,2019-6-04T04:20:37Z
2019-06-04T02:23:24Z,42.805,6.029,13.2978,4.59966,2469.69,2019-6-04T04:23:40Z
2019-06-04T02:26:27Z,42.805,6.029,13.2990,4.59983,2469.704,2019-6-04T04:26:43Z
2019-06-04T02:29:30Z,42.805,6.029,13.2975,4.59979,2469.704,2019-6-04T04:29:46Z
2019-06-04T02:32:33Z,42.805,6.029,13.2975,4.59973,2469.68,2019-6-04T04:32:49Z
2019-06-04T02:35:36Z,42.805,6.029,13.2996,4.59994,2469.727,2019-6-04T04:35:52Z
2019-06-04T02:38:39Z,42.805,6.029,13.2986,4.59970,2469.704,2019-6-04T04:38:54Z
2019-06-04T02:41:42Z,42.805,6.029,13.2981,4.59991,2469.704,2019-6-04T04:41:57Z
2019-06-04T02:44:45Z,42.805,6.029,13.2982,4.59978,2469.68,2019-6-04T04:45:00Z
2019-06-04T02:47:48Z,42.805,6.029,13.2977,4.59983,2469.68,2019-6-04T04:48:03Z
2019-06-04T02:50:51Z,42.805,6.029,13.2964,4.59976,2469.667,2019-6-04T04:51:06Z
2019-06-04T02:53:54Z,42.805,6.029,13.2968,4.59994,2469.653,2019-6-04T04:54:09Z
2019-06-04T02:56:57Z,42.805,6.029,13.2975,4.59971,2469.727,2019-6-04T04:57:12Z
2019-06-04T03:00:00Z,42.805,6.029,13.2962,4.59988,2469.713,2019-6-04T05:00:15Z
2019-06-04T03:03:03Z,42.805,6.029,13.2977,4.59985,2469.69,2019-6-04T05:03:18Z
2019-06-04T03:06:06Z,42.805,6.029,13.3000,4.59997,2469.667,2019-6-04T05:06:21Z
2019-06-04T03:09:09Z,42.805,6.029,13.2986,4.59989,2469.667,2019-6-04T05:09:24Z
2019-06-04T03:12:12Z,42.805,6.029,13.2993,4.59990,2469.704,2019-6-04T05:12:27Z
2019-06-04T03:15:15Z,42.805,6.029,13.2986,4.59976,2469.704,2019-6-04T05:15:30Z
2019-06-04T03:18:17Z,42.805,6.029,13.2981,4.59984,2469.68,2019-6-04T05:18:33Z
2019-06-04T03:21:20Z,42.805,6.029,13.2992,4.59976,2469.643,2019-6-04T05:21:36Z
2019-06-04T03:24:23Z,42.805,6.029,13.3034,4.59978,2469.713,2019-6-04T05:24:39Z
2019-06-04T03:27:26Z,42.805,6.029,13.2987,4.60003,2469.68,2019-6-04T05:27:42Z
2019-06-04T03:30:29Z,42.805,6.029,13.2988,4.59967,2469.704,2019-6-04T05:30:45Z
2019-06-04T03:33:32Z,42.805,6.029,13.3000,4.59968,2469.704,2019-6-04T05:33:47Z
2019-06-04T03:36:35Z,42.805,6.029,13.3012,4.59991,2469.713,2019-6-04T05:36:50Z
2019-06-04T03:39:38Z,42.805,6.029,13.2989,4.59975,2469.69,2019-6-04T05:39:53Z
2019-06-04T03:42:41Z,42.805,6.029,13.2986,4.59997,2469.69,2019-6-04T05:42:56Z
2019-06-04T03:45:44Z,42.805,6.029,13.3029,4.59975,2469.727,2019-6-04T05:45:59Z
2019-06-04T03:48:47Z,42.805,6.029,13.2995,4.59987,2469.713,2019-6-04T05:49:02Z
2019-06-04T03:51:50Z,42.805,6.029,13.2996,4.60023,2469.69,2019-6-04T05:52:05Z
2019-06-04T03:54:53Z,42.805,6.029,13.3020,4.59992,2469.713,2019-6-04T05:55:08Z
2019-06-04T03:57:56Z,42.805,6.029,13.3017,4.59985,2469.704,2019-6-04T05:58:11Z
2019-06-04T04:00:59Z,42.805,6.029,13.3008,4.59979,2469.713,2019-6-04T06:01:14Z
2019-06-04T04:04:02Z,42.805,6.029,13.2976,4.60017,2469.727,2019-6-04T06:04:17Z
2019-06-04T04:07:05Z,42.805,6.029,13.2989,4.59985,2469.737,2019-6-04T06:07:20Z
2019-06-04T04:10:08Z,42.805,6.029,13.2995,4.59999,2469.737,2019-6-04T06:10:23Z
2019-06-04T04:13:10Z,42.805,6.029,13.3004,4.59981,2469.737,2019-6-04T06:13:26Z
2019-06-04T04:16:13Z,42.805,6.029,13.2984,4.59984,2469.737,2019-6-04T06:16:29Z
2019-06-04T04:19:16Z,42.805,6.029,13.3007,4.59991,2469.69,2019-6-04T06:19:32Z
2019-06-04T04:22:19Z,42.805,6.029,13.3006,4.59981,2469.75,2019-6-04T06:22:35Z
2019-06-04T04:25:22Z,42.805,6.029,13.2990,4.59979,2469.75,2019-6-04T06:25:38Z
2019-06-04T04:28:25Z,42.805,6.029,13.2989,4.59991,2469.773,2019-6-04T06:28:40Z
2019-06-04T04:31:28Z,42.805,6.029,13.2965,4.60000,2469.75,2019-6-04T06:31:43Z
2019-06-04T04:34:31Z,42.805,6.029,13.2993,4.59993,2469.75,2019-6-04T06:34:46Z
2019-06-04T04:37:34Z,42.805,6.029,13.2996,4.60012,2469.76,2019-6-04T06:37:49Z
2019-06-04T04:40:37Z,42.805,6.029,13.2982,4.59992,2469.75,2019-6-04T06:40:52Z
2019-06-04T04:43:40Z,42.805,6.029,13.2971,4.59994,2469.76,2019-6-04T06:43:55Z
2019-06-04T04:46:43Z,42.805,6.029,13.2982,4.59991,2469.737,2019-6-04T06:46:58Z
2019-06-04T04:49:46Z,42.805,6.029,13.2989,4.59970,2469.773,2019-6-04T06:50:01Z
2019-06-04T04:52:49Z,42.805,6.029,13.2978,4.59983,2469.797,2019-6-04T06:53:04Z
2019-06-04T04:55:52Z,42.805,6.029,13.2980,4.59976,2469.783,2019-6-04T06:56:07Z
2019-06-04T04:58:55Z,42.805,6.029,13.2997,4.59989,2469.773,2019-6-04T06:59:10Z
2019-06-04T05:01:58Z,42.805,6.029,13.2986,4.59988,2469.76,2019-6-04T07:02:13Z
2019-06-04T05:05:01Z,42.805,6.029,13.2990,4.59988,2469.773,2019-6-04T07:05:16Z
2019-06-04T05:08:03Z,42.805,6.029,13.2989,4.60005,2469.783,2019-6-04T07:08:19Z
2019-06-04T05:11:06Z,42.805,6.029,13.2987,4.59996,2469.797,2019-6-04T07:11:22Z
2019-06-04T05:14:09Z,42.805,6.029,13.2976,4.60003,2469.75,2019-6-04T07:14:25Z
2019-06-04T05:17:12Z,42.805,6.029,13.2991,4.60007,2469.76,2019-6-04T07:17:28Z
2019-06-04T05:20:15Z,42.805,6.029,13.2978,4.60021,2469.783,2019-6-04T07:20:30Z
2019-06-04T05:23:18Z,42.805,6.029,13.2978,4.60003,2469.797,2019-6-04T07:23:33Z
2019-06-04T05:26:21Z,42.805,6.029,13.3018,4.59971,2469.773,2019-6-04T07:26:36Z
2019-06-04T05:29:24Z,42.805,6.029,13.3006,4.59978,2469.806,2019-6-04T07:29:39Z
2019-06-04T05:32:27Z,42.805,6.029,13.3002,4.59985,2469.76,2019-6-04T07:32:42Z
2019-06-04T05:35:30Z,42.805,6.029,13.2979,4.59999,2469.793,2019-6-04T07:35:45Z
2019-06-04T05:38:33Z,42.805,6.029,13.2989,4.59995,2469.821,2019-6-04T07:38:48Z
2019-06-04T05:41:36Z,42.805,6.029,13.2990,4.60013,2469.773,2019-6-04T07:41:51Z
2019-06-04T05:44:39Z,42.805,6.029,13.2992,4.60008,2469.797,2019-6-04T07:44:54Z
2019-06-04T05:47:42Z,42.805,6.029,13.2982,4.60021,2469.783,2019-6-04T07:47:57Z
2019-06-04T05:50:45Z,42.805,6.029,13.2991,4.60022,2469.83,2019-6-04T07:51:00Z
2019-06-04T05:53:48Z,42.805,6.029,13.2990,4.60028,2469.821,2019-6-04T07:54:03Z
2019-06-04T05:56:51Z,42.805,6.029,13.2986,4.60011,2469.821,2019-6-04T07:57:06Z
2019-06-04T05:59:54Z,42.805,6.029,13.3007,4.60003,2469.844,2019-6-04T08:00:09Z
2019-06-04T06:02:56Z,42.805,6.029,13.3039,4.59996,2469.797,2019-6-04T08:03:12Z
2019-06-04T06:05:59Z,42.805,6.029,13.2998,4.59998,2469.821,2019-6-04T08:06:15Z
2019-06-04T06:09:02Z,42.805,6.029,13.3006,4.60015,2469.821,2019-6-04T08:09:18Z
2019-06-04T06:12:05Z,42.805,6.029,13.2991,4.60011,2469.83,2019-6-04T08:12:21Z
2019-06-04T06:15:08Z,42.805,6.029,13.2998,4.60026,2469.797,2019-6-04T08:15:23Z
2019-06-04T06:18:11Z,42.805,6.029,13.3031,4.60006,2469.83,2019-6-04T08:18:26Z
2019-06-04T06:21:14Z,42.805,6.029,13.2967,4.59998,2469.844,2019-6-04T08:21:29Z
2019-06-04T06:24:17Z,42.805,6.029,13.2983,4.60064,2469.83,2019-6-04T08:24:32Z
2019-06-04T06:27:20Z,42.805,6.029,13.2998,4.60014,2469.83,2019-6-04T08:27:35Z
2019-06-04T06:30:23Z,42.805,6.029,13.2999,4.60049,2469.844,2019-6-04T08:30:38Z
2019-06-04T06:33:26Z,42.805,6.029,13.3003,4.59989,2469.844,2019-6-04T08:33:41Z
2019-06-04T06:36:29Z,42.805,6.029,13.2995,4.60021,2469.844,2019-6-04T08:36:44Z
2019-06-04T06:39:32Z,42.805,6.029,13.3011,4.59998,2469.806,2019-6-04T08:39:47Z
2019-06-04T06:42:35Z,42.805,6.029,13.3009,4.60021,2469.83,2019-6-04T08:42:50Z
2019-06-04T06:45:38Z,42.805,6.029,13.3020,4.59989,2469.867,2019-6-04T08:45:53Z
2019-06-04T06:48:41Z,42.805,6.029,13.3023,4.60041,2469.89,2019-6-04T08:48:56Z
2019-06-04T06:51:44Z,42.805,6.029,13.2996,4.60014,2469.867,2019-6-04T08:51:59Z
2019-06-04T06:54:46Z,42.805,6.029,13.3033,4.60008,2469.83,2019-6-04T08:55:02Z
2019-06-04T06:57:49Z,42.805,6.029,13.3000,4.60011,2469.83,2019-6-04T08:58:05Z
2019-06-04T07:00:52Z,42.805,6.029,13.2998,4.60044,2469.844,2019-6-04T09:01:08Z
2019-06-04T07:03:55Z,42.805,6.029,13.2998,4.60014,2469.867,2019-6-04T09:04:11Z
2019-06-04T07:06:58Z,42.805,6.029,13.3020,4.60007,2469.867,2019-6-04T09:07:14Z
2019-06-04T07:10:01Z,42.805,6.029,13.3019,4.60013,2469.89,2019-6-04T09:10:16Z
2019-06-04T07:13:04Z,42.805,6.029,13.2995,4.60026,2469.844,2019-6-04T09:13:19Z
2019-06-04T07:16:07Z,42.805,6.029,13.2997,4.60020,2469.867,2019-6-04T09:16:22Z
2019-06-04T07:19:10Z,42.805,6.029,13.2990,4.60061,2469.83,2019-6-04T09:19:25Z
2019-06-04T07:22:13Z,42.805,6.029,13.2995,4.60022,2469.844,2019-6-04T09:22:28Z
2019-06-04T07:25:16Z,42.805,6.029,13.3006,4.60019,2469.867,2019-6-04T09:25:31Z
2019-06-04T07:28:19Z,42.805,6.029,13.3014,4.60048,2469.853,2019-6-04T09:28:34Z
2019-06-04T07:31:22Z,42.805,6.029,13.3033,4.59995,2469.867,2019-6-04T09:31:37Z
2019-06-04T07:34:25Z,42.805,6.029,13.3016,4.60091,2469.853,2019-6-04T09:34:40Z
2019-06-04T07:37:28Z,42.805,6.029,13.3026,4.60109,2469.867,2019-6-04T09:37:43Z
2019-06-04T07:40:31Z,42.805,6.029,13.2995,4.60034,2469.83,2019-6-04T09:40:46Z
2019-06-04T07:43:34Z,42.805,6.029,13.3002,4.60044,2469.844,2019-6-04T09:43:49Z
2019-06-04T07:46:37Z,42.805,6.029,13.2989,4.60029,2469.844,2019-6-04T09:46:52Z
2019-06-04T07:49:39Z,42.805,6.029,13.2999,4.60049,2469.821,2019-6-04T09:49:55Z
2019-06-04T07:52:42Z,42.805,6.029,13.3007,4.60011,2469.844,2019-6-04T09:52:58Z
2019-06-04T07:55:45Z,42.805,6.029,13.3013,4.60099,2469.844,2019-6-04T09:56:01Z
2019-06-04T07:58:48Z,42.805,6.029,13.3019,4.60035,2469.853,2019-6-04T09:59:04Z
2019-06-04T08:01:51Z,42.805,6.029,13.3050,4.60051,2469.876,2019-6-04T10:02:07Z
2019-06-04T08:04:54Z,42.805,6.029,13.2988,4.60047,2469.821,2019-6-04T10:05:09Z
2019-06-04T08:07:57Z,42.805,6.029,13.3026,4.59999,2469.844,2019-6-04T10:08:12Z
2019-06-04T08:11:00Z,42.805,6.029,13.3012,4.60009,2469.867,2019-6-04T10:11:15Z
2019-06-04T08:14:03Z,42.805,6.029,13.3024,4.60020,2469.83,2019-6-04T10:14:18Z
2019-06-04T08:17:06Z,42.805,6.029,13.2997,4.60057,2469.821,2019-6-04T10:17:21Z
2019-06-04T08:20:09Z,42.805,6.029,13.2986,4.60038,2469.844,2019-6-04T10:20:24Z
2019-06-04T08:23:12Z,42.805,6.029,13.3016,4.60059,2469.83,2019-6-04T10:23:27Z
2019-06-04T08:26:15Z,42.805,6.029,13.3041,4.60022,2469.867,2019-6-04T10:26:30Z
2019-06-04T08:29:18Z,42.805,6.029,13.3022,4.60025,2469.844,2019-6-04T10:29:33Z
2019-06-04T08:32:21Z,42.805,6.029,13.2986,4.60044,2469.83,2019-6-04T10:32:36Z
2019-06-04T08:35:24Z,42.805,6.029,13.2971,4.60023,2469.821,2019-6-04T10:35:39Z
2019-06-04T08:38:27Z,42.805,6.029,13.2993,4.60019,2469.844,2019-6-04T10:38:42Z
2019-06-04T08:41:30Z,42.805,6.029,13.3014,4.59994,2469.83,2019-6-04T10:41:45Z
2019-06-04T08:44:33Z,42.805,6.029,13.3027,4.60029,2469.783,2019-6-04T10:44:48Z
2019-06-04T08:47:35Z,42.805,6.029,13.3027,4.60000,2469.844,2019-6-04T10:47:51Z
2019-06-04T08:50:38Z,42.805,6.029,13.3013,4.60029,2469.821,2019-6-04T10:50:54Z
2019-06-04T08:53:41Z,42.805,6.029,13.3024,4.60031,2469.806,2019-6-04T10:53:57Z
2019-06-04T08:56:44Z,42.805,6.029,13.3016,4.60026,2469.853,2019-6-04T10:57:00Z
2019-06-04T08:59:47Z,42.805,6.029,13.3026,4.60060,2469.844,2019-6-04T11:00:03Z
2019-06-04T09:02:50Z,42.805,6.029,13.3023,4.60111,2469.844,2019-6-04T11:03:05Z
2019-06-04T09:05:53Z,42.805,6.029,13.3025,4.60079,2469.797,2019-6-04T11:06:08Z
2019-06-04T09:08:56Z,42.805,6.029,13.3035,4.60031,2469.821,2019-6-04T11:09:11Z
2019-06-04T09:11:59Z,42.805,6.029,13.3012,4.60021,2469.797,2019-6-04T11:12:14Z
2019-06-04T09:15:02Z,42.805,6.029,13.3011,4.60043,2469.797,2019-6-04T11:15:17Z
2019-06-04T09:18:05Z,42.805,6.029,13.3026,4.60042,2469.821,2019-6-04T11:18:20Z
2019-06-04T09:21:08Z,42.805,6.029,13.3036,4.60044,2469.773,2019-6-04T11:21:23Z
2019-06-04T09:24:11Z,42.805,6.029,13.3011,4.60024,2469.821,2019-6-04T11:24:26Z
2019-06-04T09:27:14Z,42.805,6.029,13.3013,4.60033,2469.806,2019-6-04T11:27:29Z
2019-06-04T09:30:17Z,42.805,6.029,13.3001,4.60046,2469.821,2019-6-04T11:30:32Z
2019-06-04T09:33:20Z,42.805,6.029,13.2990,4.60039,2469.773,2019-6-04T11:33:35Z
2019-06-04T09:36:23Z,42.805,6.029,13.3004,4.60040,2469.821,2019-6-04T11:36:38Z
2019-06-04T09:39:26Z,42.805,6.029,13.3006,4.60033,2469.797,2019-6-04T11:39:41Z
2019-06-04T09:42:29Z,42.805,6.029,13.3018,4.60016,2469.821,2019-6-04T11:42:44Z
2019-06-04T09:45:31Z,42.805,6.029,13.2986,4.60035,2469.806,2019-6-04T11:45:47Z
2019-06-04T09:48:34Z,42.805,6.029,13.3013,4.60022,2469.821,2019-6-04T11:48:50Z
2019-06-04T09:51:37Z,42.805,6.029,13.3005,4.60062,2469.783,2019-6-04T11:51:53Z
2019-06-04T09:54:40Z,42.805,6.029,13.3009,4.60057,2469.773,2019-6-04T11:54:56Z
2019-06-04T09:57:43Z,42.805,6.029,13.3019,4.60031,2469.76,2019-6-04T11:57:59Z
2019-06-04T10:00:46Z,42.805,6.029,13.3027,4.60020,2469.783,2019-6-04T12:01:01Z
2019-06-04T10:03:49Z,42.805,6.029,13.3020,4.60049,2469.797,2019-6-04T12:04:04Z
2019-06-04T10:06:52Z,42.805,6.029,13.2983,4.60032,2469.783,2019-6-04T12:07:07Z
2019-06-04T10:09:55Z,42.805,6.029,13.2996,4.60021,2469.76,2019-6-04T12:10:10Z
2019-06-04T10:12:58Z,42.805,6.029,13.3010,4.60049,2469.773,2019-6-04T12:13:13Z
2019-06-04T10:16:01Z,42.805,6.029,13.2987,4.60031,2469.773,2019-6-04T12:16:16Z
2019-06-04T10:19:04Z,42.805,6.029,13.2961,4.60045,2469.713,2019-6-04T12:19:19Z
2019-06-04T10:22:07Z,42.805,6.029,13.2973,4.60033,2469.773,2019-6-04T12:22:22Z
2019-06-04T10:25:10Z,42.805,6.029,13.2993,4.60039,2469.773,2019-6-04T12:25:25Z
2019-06-04T10:28:13Z,42.805,6.029,13.2981,4.60043,2469.797,2019-6-04T12:28:28Z
2019-06-04T10:31:16Z,42.805,6.029,13.2983,4.60021,2469.737,2019-6-04T12:31:31Z
2019-06-04T10:34:19Z,42.805,6.029,13.2986,4.60019,2469.713,2019-6-04T12:34:34Z
2019-06-04T10:37:22Z,42.805,6.029,13.2963,4.60020,2469.773,2019-6-04T12:37:37Z
2019-06-04T10:40:25Z,42.805,6.029,13.2971,4.60024,2469.75,2019-6-04T12:40:40Z
2019-06-04T10:43:27Z,42.805,6.029,13.2982,4.60026,2469.76,2019-6-04T12:43:43Z
2019-06-04T10:46:30Z,42.805,6.029,13.2969,4.60008,2469.737,2019-6-04T12:46:46Z
2019-06-04T10:49:33Z,42.805,6.029,13.2977,4.60014,2469.727,2019-6-04T12:49:49Z
2019-06-04T10:52:36Z,42.805,6.029,13.2967,4.60013,2469.713,2019-6-04T12:52:52Z
2019-06-04T10:55:39Z,42.805,6.029,13.2998,4.60019,2469.713,2019-6-04T12:55:55Z
2019-06-04T10:58:42Z,42.805,6.029,13.2982,4.60026,2469.69,2019-6-04T12:58:58Z
2019-06-04T11:01:45Z,42.805,6.029,13.2991,4.60011,2469.713,2019-6-04T13:02:00Z
2019-06-04T11:04:48Z,42.805,6.029,13.2970,4.60031,2469.75,2019-6-04T13:05:03Z
2019-06-04T11:07:51Z,42.805,6.029,13.2986,4.60033,2469.727,2019-6-04T13:08:06Z
2019-06-04T11:10:54Z,42.805,6.029,13.2997,4.60029,2469.69,2019-6-04T13:11:09Z
2019-06-04T11:13:57Z,42.805,6.029,13.2992,4.60033,2469.713,2019-6-04T13:14:12Z
2019-06-04T11:17:00Z,42.805,6.029,13.3015,4.60001,2469.713,2019-6-04T13:17:15Z
2019-06-04T11:20:03Z,42.805,6.029,13.3011,4.60002,2469.75,2019-6-04T13:20:18Z
2019-06-04T11:23:06Z,42.805,6.029,13.3006,4.60042,2469.69,2019-6-04T13:23:21Z
2019-06-04T11:26:09Z,42.805,6.029,13.2979,4.60021,2469.713,2019-6-04T13:26:24Z
2019-06-04T11:29:12Z,42.805,6.029,13.3009,4.60036,2469.713,2019-6-04T13:29:27Z
2019-06-04T11:32:15Z,42.805,6.029,13.2983,4.60080,2469.68,2019-6-04T13:32:30Z
2019-06-04T11:35:18Z,42.805,6.029,13.2998,4.60010,2469.704,2019-6-04T13:35:33Z
2019-06-04T11:38:21Z,42.805,6.029,13.2999,4.60000,2469.727,2019-6-04T13:38:36Z
2019-06-04T11:41:23Z,42.805,6.029,13.2976,4.59974,2469.69,2019-6-04T13:41:39Z
2019-06-04T11:44:26Z,42.805,6.029,13.2991,4.60017,2469.68,2019-6-04T13:44:42Z
2019-06-04T11:47:29Z,42.805,6.029,13.2993,4.60038,2469.68,2019-6-04T13:47:45Z
2019-06-04T11:50:32Z,42.805,6.029,13.3004,4.60044,2469.704,2019-6-04T13:50:48Z
2019-06-04T11:53:35Z,42.805,6.029,13.2991,4.60031,2469.704,2019-6-04T13:53:51Z
2019-06-04T11:56:38Z,42.805,6.029,13.3004,4.60032,2469.69,2019-6-04T13:56:54Z
2019-06-04T11:59:41Z,42.805,6.029,13.3018,4.60050,2469.704,2019-6-04T13:59:56Z
2019-06-04T12:02:44Z,42.805,6.029,13.2999,4.60050,2469.68,2019-6-04T14:02:59Z
2019-06-04T12:05:47Z,42.805,6.029,13.3011,4.60007,2469.667,2019-6-04T14:06:02Z
2019-06-04T12:08:50Z,42.805,6.029,13.3009,4.60021,2469.667,2019-6-04T14:09:05Z
2019-06-04T12:11:53Z,42.805,6.029,13.3015,4.60036,2469.667,2019-6-04T14:12:08Z
2019-06-04T12:14:56Z,42.805,6.029,13.3021,4.60033,2469.68,2019-6-04T14:15:11Z
2019-06-04T12:17:59Z,42.805,6.029,13.2992,4.60058,2469.68,2019-6-04T14:18:14Z
2019-06-04T12:21:02Z,42.805,6.029,13.3033,4.60040,2469.713,2019-6-04T14:21:17Z
2019-06-04T12:24:05Z,42.805,6.029,13.3020,4.60021,2469.657,2019-6-04T14:24:20Z
2019-06-04T12:27:08Z,42.805,6.029,13.3021,4.60047,2469.69,2019-6-04T14:27:23Z
2019-06-04T12:30:11Z,42.805,6.029,13.2998,4.60048,2469.667,2019-6-04T14:30:26Z
2019-06-04T12:33:14Z,42.805,6.029,13.3026,4.60043,2469.68,2019-6-04T14:33:29Z
2019-06-04T12:36:17Z,42.805,6.029,13.3008,4.60030,2469.68,2019-6-04T14:36:32Z
2019-06-04T12:39:19Z,42.805,6.029,13.3007,4.60048,2469.657,2019-6-04T14:39:35Z
2019-06-04T12:42:22Z,42.805,6.029,13.3016,4.60054,2469.667,2019-6-04T14:42:38Z
2019-06-04T12:45:25Z,42.805,6.029,13.3032,4.60028,2469.68,2019-6-04T14:45:41Z
2019-06-04T12:48:28Z,42.805,6.029,13.3017,4.59995,2469.657,2019-6-04T14:48:44Z
2019-06-04T12:51:31Z,42.805,6.029,13.2997,4.60006,2469.68,2019-6-04T14:51:47Z
2019-06-04T12:54:34Z,42.805,6.029,13.2980,4.59977,2469.657,2019-6-04T14:54:50Z
2019-06-04T12:57:37Z,42.805,6.029,13.2964,4.60005,2469.657,2019-6-04T14:57:53Z
2019-06-04T13:00:40Z,42.805,6.029,13.2976,4.59994,2469.667,2019-6-04T15:00:55Z
2019-06-04T13:03:43Z,42.805,6.029,13.2983,4.60026,2469.704,2019-6-04T15:03:58Z
2019-06-04T13:06:46Z,42.805,6.029,13.2973,4.60053,2469.667,2019-6-04T15:07:01Z
2019-06-04T13:09:49Z,42.805,6.029,13.2979,4.60061,2469.68,2019-6-04T15:10:04Z
2019-06-04T13:12:52Z,42.805,6.029,13.3003,4.60016,2469.667,2019-6-04T15:13:07Z
2019-06-04T13:15:55Z,42.805,6.029,13.3006,4.60028,2469.68,2019-6-04T15:16:10Z
2019-06-04T13:18:58Z,42.805,6.029,13.2998,4.60004,2469.643,2019-6-04T15:19:13Z
2019-06-04T13:22:01Z,42.805,6.029,13.3014,4.60004,2469.68,2019-6-04T15:22:16Z
2019-06-04T13:25:04Z,42.805,6.029,13.3017,4.60022,2469.657,2019-6-04T15:25:19Z
2019-06-04T13:28:07Z,42.805,6.029,13.2972,4.60044,2469.634,2019-6-04T15:28:22Z
2019-06-04T13:31:10Z,42.805,6.029,13.2991,4.60030,2469.643,2019-6-04T15:31:25Z
2019-06-04T13:34:13Z,42.805,6.029,13.3024,4.59988,2469.62,2019-6-04T15:34:28Z
2019-06-04T13:37:16Z,42.805,6.029,13.2983,4.60015,2469.667,2019-6-04T15:37:31Z
2019-06-04T13:40:18Z,42.805,6.029,13.3012,4.60025,2469.657,2019-6-04T15:40:34Z
2019-06-04T13:43:21Z,42.805,6.029,13.2991,4.60006,2469.68,2019-6-04T15:43:37Z
2019-06-04T13:46:24Z,42.805,6.029,13.3015,4.60029,2469.634,2019-6-04T15:46:40Z
2019-06-04T13:49:27Z,42.805,6.029,13.3012,4.59988,2469.643,2019-6-04T15:49:43Z
2019-06-04T13:52:30Z,42.805,6.029,13.3024,4.60009,2469.68,2019-6-04T15:52:46Z
2019-06-04T13:55:33Z,42.805,6.029,13.3040,4.59996,2469.634,2019-6-04T15:55:49Z
2019-06-04T13:58:36Z,42.805,6.029,13.3006,4.59995,2469.643,2019-6-04T15:58:51Z
2019-06-04T14:01:39Z,42.805,6.029,13.3019,4.59987,2469.657,2019-6-04T16:01:54Z
2019-06-04T14:04:42Z,42.805,6.029,13.3026,4.60041,2469.657,2019-6-04T16:04:57Z
2019-06-04T14:07:45Z,42.805,6.029,13.3004,4.59976,2469.657,2019-6-04T16:08:00Z
2019-06-04T14:10:48Z,42.805,6.029,13.2983,4.60009,2469.657,2019-6-04T16:11:03Z
2019-06-04T14:13:51Z,42.805,6.029,13.3026,4.60014,2469.634,2019-6-04T16:14:06Z
2019-06-04T14:16:54Z,42.805,6.029,13.2982,4.59991,2469.634,2019-6-04T16:17:09Z
2019-06-04T14:19:57Z,42.805,6.029,13.2983,4.59989,2469.634,2019-6-04T16:20:12Z
2019-06-04T14:23:00Z,42.805,6.029,13.3006,4.60008,2469.61,2019-6-04T16:23:15Z
2019-06-04T14:26:03Z,42.805,6.029,13.2991,4.60002,2469.643,2019-6-04T16:26:18Z
2019-06-04T14:29:06Z,42.805,6.029,13.2990,4.59966,2469.657,2019-6-04T16:29:21Z
2019-06-04T14:32:09Z,42.805,6.029,13.2968,4.60001,2469.62,2019-6-04T16:32:24Z
2019-06-04T14:35:12Z,42.805,6.029,13.2998,4.59979,2469.634,2019-6-04T16:35:27Z
2019-06-04T14:38:14Z,42.805,6.029,13.2975,4.59991,2469.634,2019-6-04T16:38:30Z
2019-06-04T14:41:17Z,42.805,6.029,13.2988,4.59996,2469.68,2019-6-04T16:41:33Z
2019-06-04T14:44:20Z,42.805,6.029,13.2990,4.59985,2469.657,2019-6-04T16:44:36Z
2019-06-04T14:47:23Z,42.805,6.029,13.2990,4.60000,2469.634,2019-6-04T16:47:39Z
2019-06-04T14:50:26Z,42.805,6.029,13.2991,4.59996,2469.657,2019-6-04T16:50:42Z
2019-06-04T14:53:29Z,42.805,6.029,13.2974,4.59994,2469.634,2019-6-04T16:53:45Z
2019-06-04T14:56:32Z,42.805,6.029,13.2996,4.59994,2469.657,2019-6-04T16:56:47Z
2019-06-04T14:59:35Z,42.805,6.029,13.2995,4.59987,2469.68,2019-6-04T16:59:50Z
2019-06-04T15:02:38Z,42.805,6.029,13.3012,4.60014,2469.643,2019-6-04T17:02:53Z
2019-06-04T15:05:41Z,42.805,6.029,13.2995,4.59993,2469.667,2019-6-04T17:05:56Z
2019-06-04T15:08:44Z,42.805,6.029,13.2998,4.59991,2469.634,2019-6-04T17:08:59Z